カタログに戻る

MIDAS 4 DEB

運用中PO
NORAD 27478·DEBRIS·🇺🇸 United States

打ち上げ Oct 21, 1961 から Vandenberg Space Force Base

Loading…

次のパス (今後24時間)

TLE

最新Source: Space-Track

元期: Sep 11, 2026, 21:26 UTC

1 27478U 61028H   26254.89330720 -.00000015  00000-0 -49256-2 0  9992
2 27478  95.8521 236.3976 0262266 243.3471 138.6644  8.66661688598306

AllMySatでMIDAS 4 DEBをリアルタイム追跡

Download on the App Store